Year,Month,Day,Hour,Minute,Value (Times are PST for temperature in C)
2008,05,17,00,00,12.90
2008,05,17,00,01,12.90
2008,05,17,00,02,12.90
2008,05,17,00,03,12.90
2008,05,17,00,04,12.90
2008,05,17,00,05,12.90
2008,05,17,00,06,12.90
2008,05,17,00,07,12.90
2008,05,17,00,08,12.90
2008,05,17,00,09,13.00
2008,05,17,00,10,13.00
2008,05,17,00,11,13.00
2008,05,17,00,12,13.00
2008,05,17,00,13,13.00
2008,05,17,00,14,13.00
2008,05,17,00,15,13.10
2008,05,17,00,16,13.10
2008,05,17,00,17,13.10
2008,05,17,00,18,13.10
2008,05,17,00,19,13.00
2008,05,17,00,20,13.00
2008,05,17,00,21,13.00
2008,05,17,00,22,13.00
2008,05,17,00,23,13.00
2008,05,17,00,24,12.90
2008,05,17,00,25,12.90
2008,05,17,00,26,12.90
2008,05,17,00,27,12.90
2008,05,17,00,28,12.90
2008,05,17,00,29,12.80
2008,05,17,00,30,12.80
2008,05,17,00,31,12.80
2008,05,17,00,32,12.80
2008,05,17,00,33,12.80
2008,05,17,00,34,12.70
2008,05,17,00,35,12.70
2008,05,17,00,36,12.70
2008,05,17,00,37,12.70
2008,05,17,00,38,12.60
2008,05,17,00,39,12.60
2008,05,17,00,40,12.60
2008,05,17,00,41,12.60
2008,05,17,00,42,12.60
2008,05,17,00,43,12.50
2008,05,17,00,44,12.50
2008,05,17,00,45,12.50
2008,05,17,00,46,12.50
2008,05,17,00,47,12.50
2008,05,17,00,48,12.50
2008,05,17,00,49,12.50
2008,05,17,00,50,12.50
2008,05,17,00,51,12.50
2008,05,17,00,52,12.60
2008,05,17,00,53,12.60
2008,05,17,00,54,12.60
2008,05,17,00,55,12.60
2008,05,17,00,56,12.60
2008,05,17,00,57,12.60
2008,05,17,00,58,12.60
2008,05,17,00,59,12.60
2008,05,17,01,00,12.60
2008,05,17,01,01,12.60
2008,05,17,01,02,12.60
2008,05,17,01,03,12.60
2008,05,17,01,04,12.60
2008,05,17,01,05,12.60
2008,05,17,01,06,12.50
2008,05,17,01,07,12.50
2008,05,17,01,08,12.50
2008,05,17,01,09,12.50
2008,05,17,01,10,12.40
2008,05,17,01,11,12.40
2008,05,17,01,12,12.40
2008,05,17,01,13,12.40
2008,05,17,01,14,12.40
2008,05,17,01,15,12.40
2008,05,17,01,16,12.40
2008,05,17,01,17,12.40
2008,05,17,01,18,12.30
2008,05,17,01,19,12.30
2008,05,17,01,20,12.20
2008,05,17,01,21,12.20
2008,05,17,01,22,12.10
2008,05,17,01,23,12.00
2008,05,17,01,24,12.00
2008,05,17,01,25,11.90
2008,05,17,01,26,11.90
2008,05,17,01,27,11.80
2008,05,17,01,28,11.80
2008,05,17,01,29,11.80
2008,05,17,01,30,11.80
2008,05,17,01,31,11.80
2008,05,17,01,32,11.80
2008,05,17,01,33,11.80
2008,05,17,01,34,11.80
2008,05,17,01,35,11.80
2008,05,17,01,36,11.80
2008,05,17,01,37,11.70
2008,05,17,01,38,11.80
2008,05,17,01,39,11.80
2008,05,17,01,40,11.80
2008,05,17,01,41,11.80
2008,05,17,01,42,11.80
2008,05,17,01,43,11.80
2008,05,17,01,44,11.80
2008,05,17,01,45,11.90
2008,05,17,01,46,11.90
2008,05,17,01,47,11.90
2008,05,17,01,48,11.90
2008,05,17,01,49,11.90
2008,05,17,01,50,11.90
2008,05,17,01,51,11.90
2008,05,17,01,52,11.90
2008,05,17,01,53,11.90
2008,05,17,01,54,11.90
2008,05,17,01,55,11.90
2008,05,17,01,56,11.90
2008,05,17,01,57,11.90
2008,05,17,01,58,11.80
2008,05,17,01,59,11.80
2008,05,17,02,00,11.80
2008,05,17,02,01,11.80
2008,05,17,02,02,11.70
2008,05,17,02,03,11.70
2008,05,17,02,04,11.70
2008,05,17,02,05,11.70
2008,05,17,02,06,11.60
2008,05,17,02,07,11.60
2008,05,17,02,08,11.60
2008,05,17,02,09,11.50
2008,05,17,02,10,11.50
2008,05,17,02,11,11.40
2008,05,17,02,12,11.40
2008,05,17,02,13,11.40
2008,05,17,02,14,11.40
2008,05,17,02,15,11.40
2008,05,17,02,16,11.40
2008,05,17,02,17,11.40
2008,05,17,02,18,11.40
2008,05,17,02,19,11.40
2008,05,17,02,20,11.40
2008,05,17,02,21,11.40
2008,05,17,02,22,11.50
2008,05,17,02,23,11.50
2008,05,17,02,24,11.50
2008,05,17,02,25,11.50
2008,05,17,02,26,11.60
2008,05,17,02,27,11.60
2008,05,17,02,28,11.60
2008,05,17,02,29,11.60
2008,05,17,02,30,11.60
2008,05,17,02,31,11.60
2008,05,17,02,32,11.60
2008,05,17,02,33,11.60
2008,05,17,02,34,11.60
2008,05,17,02,35,11.50
2008,05,17,02,36,11.50
2008,05,17,02,37,11.50
2008,05,17,02,38,11.40
2008,05,17,02,39,11.40
2008,05,17,02,40,11.40
2008,05,17,02,41,11.40
2008,05,17,02,42,11.30
2008,05,17,02,43,11.30
2008,05,17,02,44,11.30
2008,05,17,02,45,11.30
2008,05,17,02,46,11.20
2008,05,17,02,47,11.20
2008,05,17,02,48,11.20
2008,05,17,02,49,11.30
2008,05,17,02,50,11.30
2008,05,17,02,51,11.30
2008,05,17,02,52,11.30
2008,05,17,02,53,11.30
2008,05,17,02,54,11.20
2008,05,17,02,55,11.20
2008,05,17,02,56,11.20
2008,05,17,02,57,11.20
2008,05,17,02,58,11.20
2008,05,17,02,59,11.20
2008,05,17,03,00,11.20
2008,05,17,03,01,11.20
2008,05,17,03,02,11.20
2008,05,17,03,03,11.20
2008,05,17,03,04,11.20
2008,05,17,03,05,11.20
2008,05,17,03,06,11.30
2008,05,17,03,07,11.30
2008,05,17,03,08,11.30
2008,05,17,03,09,11.30
2008,05,17,03,10,11.40
2008,05,17,03,11,11.40
2008,05,17,03,12,11.40
2008,05,17,03,13,11.40
2008,05,17,03,14,11.30
2008,05,17,03,15,11.30
2008,05,17,03,16,11.30
2008,05,17,03,17,11.30
2008,05,17,03,18,11.30
2008,05,17,03,19,11.30
2008,05,17,03,20,11.20
2008,05,17,03,21,11.20
2008,05,17,03,22,11.20
2008,05,17,03,23,11.20
2008,05,17,03,24,11.20
2008,05,17,03,25,11.20
2008,05,17,03,26,11.20
2008,05,17,03,27,11.20
2008,05,17,03,28,11.20
2008,05,17,03,29,11.20
2008,05,17,03,30,11.30
2008,05,17,03,31,11.30
2008,05,17,03,32,11.30
2008,05,17,03,33,11.30
2008,05,17,03,34,11.40
2008,05,17,03,35,11.40
2008,05,17,03,36,11.40
2008,05,17,03,37,11.30
2008,05,17,03,38,11.30
2008,05,17,03,39,11.30
2008,05,17,03,40,11.30
2008,05,17,03,41,11.30
2008,05,17,03,42,11.30
2008,05,17,03,43,11.20
2008,05,17,03,44,11.20
2008,05,17,03,45,11.20
2008,05,17,03,46,11.10
2008,05,17,03,47,11.10
2008,05,17,03,48,11.00
2008,05,17,03,49,11.00
2008,05,17,03,50,10.90
2008,05,17,03,51,10.90
2008,05,17,03,52,10.90
2008,05,17,03,53,10.90
2008,05,17,03,54,10.90
2008,05,17,03,55,10.90
2008,05,17,03,56,10.90
2008,05,17,03,57,11.00
2008,05,17,03,58,11.00
2008,05,17,03,59,11.10
2008,05,17,04,00,11.10
2008,05,17,04,01,11.10
2008,05,17,04,02,11.10
2008,05,17,04,03,11.20
2008,05,17,04,04,11.20
2008,05,17,04,05,11.10
2008,05,17,04,06,11.10
2008,05,17,04,07,11.10
2008,05,17,04,08,11.10
2008,05,17,04,09,11.10
2008,05,17,04,10,11.00
2008,05,17,04,11,10.90
2008,05,17,04,12,10.90
2008,05,17,04,13,10.90
2008,05,17,04,14,10.80
2008,05,17,04,15,10.80
2008,05,17,04,16,10.80
2008,05,17,04,17,10.80
2008,05,17,04,18,10.80
2008,05,17,04,19,10.80
2008,05,17,04,20,10.80
2008,05,17,04,21,10.80
2008,05,17,04,22,10.90
2008,05,17,04,23,10.90
2008,05,17,04,24,10.90
2008,05,17,04,25,10.90
2008,05,17,04,26,10.90
2008,05,17,04,27,10.90
2008,05,17,04,28,11.00
2008,05,17,04,29,11.00
2008,05,17,04,30,11.00
2008,05,17,04,31,11.00
2008,05,17,04,32,11.00
2008,05,17,04,33,11.00
2008,05,17,04,34,11.00
2008,05,17,04,35,11.00
2008,05,17,04,36,11.00
2008,05,17,04,37,11.00
2008,05,17,04,38,11.00
2008,05,17,04,39,10.90
2008,05,17,04,40,10.90
2008,05,17,04,41,10.90
2008,05,17,04,42,10.90
2008,05,17,04,43,10.80
2008,05,17,04,44,10.80
2008,05,17,04,45,10.80
2008,05,17,04,46,10.80
2008,05,17,04,47,10.80
2008,05,17,04,48,10.80
2008,05,17,04,49,10.80
2008,05,17,04,50,10.80
2008,05,17,04,51,10.80
2008,05,17,04,52,10.80
2008,05,17,04,53,10.80
2008,05,17,04,54,10.80
2008,05,17,04,55,10.80
2008,05,17,04,56,10.80
2008,05,17,04,57,10.80
2008,05,17,04,58,10.80
2008,05,17,04,59,10.80
2008,05,17,05,00,10.80
2008,05,17,05,01,10.80
2008,05,17,05,02,10.80
2008,05,17,05,03,10.80
2008,05,17,05,04,10.80
2008,05,17,05,05,10.80
2008,05,17,05,06,10.80
2008,05,17,05,07,10.80
2008,05,17,05,08,10.80
2008,05,17,05,09,10.80
2008,05,17,05,10,10.70
2008,05,17,05,11,10.80
2008,05,17,05,12,10.80
2008,05,17,05,13,10.80
2008,05,17,05,14,10.80
2008,05,17,05,15,10.80
2008,05,17,05,16,10.80
2008,05,17,05,17,10.80
2008,05,17,05,18,10.90
2008,05,17,05,19,10.90
2008,05,17,05,20,10.90
2008,05,17,05,21,10.90
2008,05,17,05,22,10.90
2008,05,17,05,23,10.90
2008,05,17,05,24,10.90
2008,05,17,05,25,10.90
2008,05,17,05,26,10.90
2008,05,17,05,27,10.90
2008,05,17,05,28,10.90
2008,05,17,05,29,10.80
2008,05,17,05,30,10.80
2008,05,17,05,31,10.80
2008,05,17,05,32,10.80
2008,05,17,05,33,10.80
2008,05,17,05,34,10.80
2008,05,17,05,35,10.80
2008,05,17,05,36,10.80
2008,05,17,05,37,10.80
2008,05,17,05,38,10.90
2008,05,17,05,39,11.00
2008,05,17,05,40,11.10
2008,05,17,05,41,11.20
2008,05,17,05,42,11.20
2008,05,17,05,43,11.10
2008,05,17,05,44,11.10
2008,05,17,05,45,11.10
2008,05,17,05,46,11.00
2008,05,17,05,47,11.00
2008,05,17,05,48,10.90
2008,05,17,05,49,10.90
2008,05,17,05,50,10.90
2008,05,17,05,51,10.80
2008,05,17,05,52,10.80
2008,05,17,05,53,10.80
2008,05,17,05,54,10.80
2008,05,17,05,55,10.80
2008,05,17,05,56,10.80
2008,05,17,05,57,10.80
2008,05,17,05,58,10.80
2008,05,17,05,59,10.80
2008,05,17,06,00,10.70
2008,05,17,06,01,10.70
2008,05,17,06,02,10.70
2008,05,17,06,03,10.70
2008,05,17,06,04,10.70
2008,05,17,06,05,10.60
2008,05,17,06,06,10.60
2008,05,17,06,07,10.50
2008,05,17,06,08,10.50
2008,05,17,06,09,10.40
2008,05,17,06,10,10.40
2008,05,17,06,11,10.40
2008,05,17,06,12,10.50
2008,05,17,06,13,10.60
2008,05,17,06,14,10.60
2008,05,17,06,15,10.70
2008,05,17,06,16,10.70
2008,05,17,06,17,10.80
2008,05,17,06,18,10.80
2008,05,17,06,19,10.80
2008,05,17,06,20,10.80
2008,05,17,06,21,10.80
2008,05,17,06,22,10.80
2008,05,17,06,23,10.90
2008,05,17,06,24,10.90
2008,05,17,06,25,10.90
2008,05,17,06,26,11.00
2008,05,17,06,27,11.00
2008,05,17,06,28,11.10
2008,05,17,06,29,11.10
2008,05,17,06,30,11.20
2008,05,17,06,31,11.30
2008,05,17,06,32,11.30
2008,05,17,06,33,11.40
2008,05,17,06,34,11.50
2008,05,17,06,35,11.60
2008,05,17,06,36,11.70
2008,05,17,06,37,11.80
2008,05,17,06,38,12.00
2008,05,17,06,39,12.10
2008,05,17,06,40,12.20
2008,05,17,06,41,12.30
2008,05,17,06,42,12.40
2008,05,17,06,43,12.50
2008,05,17,06,44,12.50
2008,05,17,06,45,12.60
2008,05,17,06,46,12.60
2008,05,17,06,47,12.60
2008,05,17,06,48,12.60
2008,05,17,06,49,12.60
2008,05,17,06,50,12.60
2008,05,17,06,51,12.70
2008,05,17,06,52,12.80
2008,05,17,06,53,12.90
2008,05,17,06,54,13.00
2008,05,17,06,55,13.20
2008,05,17,06,56,13.30
2008,05,17,06,57,13.40
2008,05,17,06,58,13.70
2008,05,17,06,59,13.90
2008,05,17,07,00,14.00
2008,05,17,07,01,14.20
2008,05,17,07,02,14.40
2008,05,17,07,03,14.50
2008,05,17,07,04,14.60
2008,05,17,07,05,14.80
2008,05,17,07,06,15.00
2008,05,17,07,07,15.00
2008,05,17,07,08,15.00
2008,05,17,07,09,15.10
2008,05,17,07,10,15.20
2008,05,17,07,11,15.20
2008,05,17,07,12,15.30
2008,05,17,07,13,15.30
2008,05,17,07,14,15.30
2008,05,17,07,15,15.30
2008,05,17,07,16,15.30
2008,05,17,07,17,15.30
2008,05,17,07,18,15.30
2008,05,17,07,19,15.20
2008,05,17,07,20,15.20
2008,05,17,07,21,15.20
2008,05,17,07,22,15.20
2008,05,17,07,23,15.30
2008,05,17,07,24,15.30
2008,05,17,07,25,15.40
2008,05,17,07,26,15.40
2008,05,17,07,27,15.50
2008,05,17,07,28,15.60
2008,05,17,07,29,15.80
2008,05,17,07,30,16.00
2008,05,17,07,31,16.10
2008,05,17,07,32,16.30
2008,05,17,07,33,16.40
2008,05,17,07,34,16.60
2008,05,17,07,35,16.70
2008,05,17,07,36,16.80
2008,05,17,07,37,16.90
2008,05,17,07,38,17.00
2008,05,17,07,39,17.00
2008,05,17,07,40,17.10
2008,05,17,07,41,17.10
2008,05,17,07,42,17.10
2008,05,17,07,43,17.10
2008,05,17,07,44,17.10
2008,05,17,07,45,17.10
2008,05,17,07,46,17.10
2008,05,17,07,47,17.20
2008,05,17,07,48,17.20
2008,05,17,07,49,17.30
2008,05,17,07,50,17.30
2008,05,17,07,51,17.30
2008,05,17,07,52,17.40
2008,05,17,07,53,17.40
2008,05,17,07,54,17.40
2008,05,17,07,55,17.50
2008,05,17,07,56,17.50
2008,05,17,07,57,17.60
2008,05,17,07,58,17.70
2008,05,17,07,59,17.80
2008,05,17,08,00,17.90
2008,05,17,08,01,18.00
2008,05,17,08,02,18.10
2008,05,17,08,03,18.10
2008,05,17,08,04,18.30
2008,05,17,08,05,18.40
2008,05,17,08,06,18.50
2008,05,17,08,07,18.60
2008,05,17,08,08,18.80
2008,05,17,08,09,18.90
2008,05,17,08,10,19.00
2008,05,17,08,11,19.10
2008,05,17,08,12,19.20
2008,05,17,08,13,19.30
2008,05,17,08,14,19.40
2008,05,17,08,15,19.40
2008,05,17,08,16,19.50
2008,05,17,08,17,19.50
2008,05,17,08,18,19.60
2008,05,17,08,19,19.60
2008,05,17,08,20,19.60
2008,05,17,08,21,19.60
2008,05,17,08,22,19.60
2008,05,17,08,23,19.70
2008,05,17,08,24,19.70
2008,05,17,08,25,19.70
2008,05,17,08,26,19.80
2008,05,17,08,27,19.80
2008,05,17,08,28,19.90
2008,05,17,08,29,19.90
2008,05,17,08,30,19.90
2008,05,17,08,31,19.90
2008,05,17,08,32,19.90
2008,05,17,08,33,20.10
2008,05,17,08,34,20.10
2008,05,17,08,35,20.20
2008,05,17,08,36,20.30
2008,05,17,08,37,20.40
2008,05,17,08,38,20.50
2008,05,17,08,39,20.50
2008,05,17,08,40,20.50
2008,05,17,08,41,20.50
2008,05,17,08,42,20.50
2008,05,17,08,43,20.50
2008,05,17,08,44,20.50
2008,05,17,08,45,20.50
2008,05,17,08,46,20.50
2008,05,17,08,47,20.50
2008,05,17,08,48,20.50
2008,05,17,08,49,20.50
2008,05,17,08,50,20.40
2008,05,17,08,51,20.40
2008,05,17,08,52,20.40
2008,05,17,08,53,20.30
2008,05,17,08,54,20.20
2008,05,17,08,55,20.20
2008,05,17,08,56,20.20
2008,05,17,08,57,20.20
2008,05,17,08,58,20.20
2008,05,17,08,59,20.20
2008,05,17,09,00,20.20
2008,05,17,09,01,20.20
2008,05,17,09,02,20.20
2008,05,17,09,03,20.20
2008,05,17,09,04,20.20
2008,05,17,09,05,20.20
2008,05,17,09,06,20.20
2008,05,17,09,07,20.10
2008,05,17,09,08,20.20
2008,05,17,09,09,20.20
2008,05,17,09,10,20.20
2008,05,17,09,11,20.30
2008,05,17,09,12,20.40
2008,05,17,09,13,20.40
2008,05,17,09,14,20.50
2008,05,17,09,15,20.50
2008,05,17,09,16,20.60
2008,05,17,09,17,20.60
2008,05,17,09,18,20.70
2008,05,17,09,19,20.70
2008,05,17,09,20,20.70
2008,05,17,09,21,20.70
2008,05,17,09,22,20.70
2008,05,17,09,23,20.80
2008,05,17,09,24,20.90
2008,05,17,09,25,21.00
2008,05,17,09,26,21.10
2008,05,17,09,27,21.10
2008,05,17,09,28,21.10
2008,05,17,09,29,21.00
2008,05,17,09,30,21.00
2008,05,17,09,31,21.00
2008,05,17,09,32,21.10
2008,05,17,09,33,21.10
2008,05,17,09,34,21.10
2008,05,17,09,35,21.20
2008,05,17,09,36,21.20
2008,05,17,09,37,21.30
2008,05,17,09,38,21.30
2008,05,17,09,39,21.30
2008,05,17,09,40,21.30
2008,05,17,09,41,21.20
2008,05,17,09,42,21.20
2008,05,17,09,43,21.20
2008,05,17,09,44,21.30
2008,05,17,09,45,21.30
2008,05,17,09,46,21.30
2008,05,17,09,47,21.30
2008,05,17,09,48,21.30
2008,05,17,09,49,21.30
2008,05,17,09,50,21.20
2008,05,17,09,51,21.20
2008,05,17,09,52,21.20
2008,05,17,09,53,21.30
2008,05,17,09,54,21.30
2008,05,17,09,55,21.30
2008,05,17,09,56,21.40
2008,05,17,09,57,21.30
2008,05,17,09,58,21.30
2008,05,17,09,59,21.20
2008,05,17,10,00,21.20
2008,05,17,10,01,21.10
2008,05,17,10,02,21.10
2008,05,17,10,03,21.00
2008,05,17,10,04,21.00
2008,05,17,10,05,21.00
2008,05,17,10,06,21.10
2008,05,17,10,07,21.20
2008,05,17,10,08,21.30
2008,05,17,10,09,21.30
2008,05,17,10,10,21.20
2008,05,17,10,11,21.20
2008,05,17,10,12,21.10
2008,05,17,10,13,21.10
2008,05,17,10,14,21.10
2008,05,17,10,15,21.00
2008,05,17,10,16,20.90
2008,05,17,10,17,20.90
2008,05,17,10,18,21.00
2008,05,17,10,19,21.00
2008,05,17,10,20,21.10
2008,05,17,10,21,21.10
2008,05,17,10,22,21.30
2008,05,17,10,23,21.40
2008,05,17,10,24,21.50
2008,05,17,10,25,21.60
2008,05,17,10,26,21.70
2008,05,17,10,27,21.70
2008,05,17,10,28,21.70
2008,05,17,10,29,21.60
2008,05,17,10,30,21.60
2008,05,17,10,31,21.50
2008,05,17,10,32,21.50
2008,05,17,10,33,21.50
2008,05,17,10,34,21.60
2008,05,17,10,35,21.60
2008,05,17,10,36,21.60
2008,05,17,10,37,21.60
2008,05,17,10,38,21.50
2008,05,17,10,39,21.50
2008,05,17,10,40,21.50
2008,05,17,10,41,21.60
2008,05,17,10,42,21.50
2008,05,17,10,43,21.50
2008,05,17,10,44,21.50
2008,05,17,10,45,21.50
2008,05,17,10,46,21.60
2008,05,17,10,47,21.70
2008,05,17,10,48,21.80
2008,05,17,10,49,21.90
2008,05,17,10,50,22.10
2008,05,17,10,51,22.20
2008,05,17,10,52,22.40
2008,05,17,10,53,22.60
2008,05,17,10,54,22.80
2008,05,17,10,55,22.90
2008,05,17,10,56,22.90
2008,05,17,10,57,22.80
2008,05,17,10,58,22.80
2008,05,17,10,59,22.60
2008,05,17,11,00,22.60
2008,05,17,11,01,22.60
2008,05,17,11,02,22.60
2008,05,17,11,03,22.60
2008,05,17,11,04,22.60
2008,05,17,11,05,22.60
2008,05,17,11,06,22.70
2008,05,17,11,07,22.70
2008,05,17,11,08,22.70
2008,05,17,11,09,22.70
2008,05,17,11,10,22.70
2008,05,17,11,11,22.70
2008,05,17,11,12,22.80
2008,05,17,11,13,22.80
2008,05,17,11,14,22.80
2008,05,17,11,15,22.80
2008,05,17,11,16,23.00
2008,05,17,11,17,23.10
2008,05,17,11,18,23.10
2008,05,17,11,19,23.20
2008,05,17,11,20,23.30
2008,05,17,11,21,23.40
2008,05,17,11,22,23.50
2008,05,17,11,23,23.50
2008,05,17,11,24,23.80
2008,05,17,11,25,23.90
2008,05,17,11,26,23.90
2008,05,17,11,27,23.80
2008,05,17,11,28,23.60
2008,05,17,11,29,23.50
2008,05,17,11,30,23.50
2008,05,17,11,31,23.50
2008,05,17,11,32,23.40
2008,05,17,11,33,23.30
2008,05,17,11,34,23.30
2008,05,17,11,35,23.40
2008,05,17,11,36,23.40
2008,05,17,11,37,23.40
2008,05,17,11,38,23.40
2008,05,17,11,39,23.20
2008,05,17,11,40,23.10
2008,05,17,11,41,23.00
2008,05,17,11,42,22.90
2008,05,17,11,43,22.90
2008,05,17,11,44,22.80
2008,05,17,11,45,22.80
2008,05,17,11,46,22.80
2008,05,17,11,47,22.80
2008,05,17,11,48,22.70
2008,05,17,11,49,22.70
2008,05,17,11,50,22.70
2008,05,17,11,51,22.70
2008,05,17,11,52,22.70
2008,05,17,11,53,22.80
2008,05,17,11,54,22.80
2008,05,17,11,55,22.90
2008,05,17,11,56,23.10
2008,05,17,11,57,23.10
2008,05,17,11,58,23.00
2008,05,17,11,59,23.00
2008,05,17,12,00,22.90
2008,05,17,12,01,23.00
2008,05,17,12,02,23.00
2008,05,17,12,03,23.00
2008,05,17,12,04,23.10
2008,05,17,12,05,23.20
2008,05,17,12,06,23.20
2008,05,17,12,07,23.30
2008,05,17,12,08,23.40
2008,05,17,12,09,23.50
2008,05,17,12,10,23.60
2008,05,17,12,11,23.70
2008,05,17,12,12,23.60
2008,05,17,12,13,23.50
2008,05,17,12,14,23.30
2008,05,17,12,15,23.30
2008,05,17,12,16,23.20
2008,05,17,12,17,23.20
2008,05,17,12,18,23.30
2008,05,17,12,19,23.30
2008,05,17,12,20,23.40
2008,05,17,12,21,23.40
2008,05,17,12,22,23.40
2008,05,17,12,23,23.40
2008,05,17,12,24,23.30
2008,05,17,12,25,23.20
2008,05,17,12,26,23.10
2008,05,17,12,27,23.10
2008,05,17,12,28,23.20
2008,05,17,12,29,23.20
2008,05,17,12,30,23.20
2008,05,17,12,31,23.20
2008,05,17,12,32,23.10
2008,05,17,12,33,23.10
2008,05,17,12,34,23.20
2008,05,17,12,35,23.30
2008,05,17,12,36,23.40
2008,05,17,12,37,23.40
2008,05,17,12,38,23.40
2008,05,17,12,39,23.40
2008,05,17,12,40,23.40
2008,05,17,12,41,23.40
2008,05,17,12,42,23.40
2008,05,17,12,43,23.40
2008,05,17,12,44,23.50
2008,05,17,12,45,23.50
2008,05,17,12,46,23.50
2008,05,17,12,47,23.60
2008,05,17,12,48,23.60
2008,05,17,12,49,23.50
2008,05,17,12,50,23.40
2008,05,17,12,51,23.50
2008,05,17,12,52,23.50
2008,05,17,12,53,23.50
2008,05,17,12,54,23.50
2008,05,17,12,55,23.40
2008,05,17,12,56,23.30
2008,05,17,12,57,23.30
2008,05,17,12,58,23.40
2008,05,17,12,59,23.30
2008,05,17,13,00,23.40
2008,05,17,13,01,23.40
2008,05,17,13,02,23.50
2008,05,17,13,03,23.60
2008,05,17,13,04,23.70
2008,05,17,13,05,23.70
2008,05,17,13,06,23.80
2008,05,17,13,07,23.90
2008,05,17,13,08,23.90
2008,05,17,13,09,23.90
2008,05,17,13,10,23.90
2008,05,17,13,11,23.90
2008,05,17,13,12,23.90
2008,05,17,13,13,23.90
2008,05,17,13,14,23.90
2008,05,17,13,15,23.90
2008,05,17,13,16,23.80
2008,05,17,13,17,23.80
2008,05,17,13,18,23.80
2008,05,17,13,19,23.80
2008,05,17,13,20,23.70
2008,05,17,13,21,23.80
2008,05,17,13,22,24.00
2008,05,17,13,23,24.00
2008,05,17,13,24,24.10
2008,05,17,13,25,24.20
2008,05,17,13,26,24.20
2008,05,17,13,27,24.20
2008,05,17,13,28,24.10
2008,05,17,13,29,24.10
2008,05,17,13,30,24.10
2008,05,17,13,31,24.20
2008,05,17,13,32,24.30
2008,05,17,13,33,24.30
2008,05,17,13,34,24.50
2008,05,17,13,35,24.60
2008,05,17,13,36,24.70
2008,05,17,13,37,24.70
2008,05,17,13,38,24.70
2008,05,17,13,39,24.80
2008,05,17,13,40,24.80
2008,05,17,13,41,24.80
2008,05,17,13,42,24.80
2008,05,17,13,43,24.70
2008,05,17,13,44,24.60
2008,05,17,13,45,24.60
2008,05,17,13,46,24.60
2008,05,17,13,47,24.70
2008,05,17,13,48,24.80
2008,05,17,13,49,24.80
2008,05,17,13,50,24.80
2008,05,17,13,51,24.80
2008,05,17,13,52,24.90
2008,05,17,13,53,25.00
2008,05,17,13,54,25.10
2008,05,17,13,55,25.10
2008,05,17,13,56,25.10
2008,05,17,13,57,25.10
2008,05,17,13,58,25.00
2008,05,17,13,59,24.90
2008,05,17,14,00,24.90
2008,05,17,14,01,24.90
2008,05,17,14,02,25.00
2008,05,17,14,03,25.10
2008,05,17,14,04,25.20
2008,05,17,14,05,25.20
2008,05,17,14,06,25.30
2008,05,17,14,07,25.30
2008,05,17,14,08,25.30
2008,05,17,14,09,25.30
2008,05,17,14,10,25.30
2008,05,17,14,11,25.40
2008,05,17,14,12,25.50
2008,05,17,14,13,25.60
2008,05,17,14,14,25.60
2008,05,17,14,15,25.70
2008,05,17,14,16,25.80
2008,05,17,14,17,25.90
2008,05,17,14,18,25.90
2008,05,17,14,19,25.90
2008,05,17,14,20,25.90
2008,05,17,14,21,25.90
2008,05,17,14,22,25.90
2008,05,17,14,23,26.00
2008,05,17,14,24,26.00
2008,05,17,14,25,26.00
2008,05,17,14,26,26.00
2008,05,17,14,27,25.90
2008,05,17,14,28,26.00
2008,05,17,14,29,26.00
2008,05,17,14,30,26.10
2008,05,17,14,31,26.10
2008,05,17,14,32,26.20
2008,05,17,14,33,26.30
2008,05,17,14,34,26.50
2008,05,17,14,35,26.50
2008,05,17,14,36,26.40
2008,05,17,14,37,26.30
2008,05,17,14,38,26.20
2008,05,17,14,39,26.00
2008,05,17,14,40,25.90
2008,05,17,14,41,25.70
2008,05,17,14,42,25.70
2008,05,17,14,43,25.70
2008,05,17,14,44,25.60
2008,05,17,14,45,25.60
2008,05,17,14,46,25.50
2008,05,17,14,47,25.40
2008,05,17,14,48,25.30
2008,05,17,14,49,25.40
2008,05,17,14,50,25.40
2008,05,17,14,51,25.50
2008,05,17,14,52,25.50
2008,05,17,14,53,25.60
2008,05,17,14,54,25.60
2008,05,17,14,55,25.70
2008,05,17,14,56,25.60
2008,05,17,14,57,25.60
2008,05,17,14,58,25.60
2008,05,17,14,59,25.50
2008,05,17,15,00,25.50
2008,05,17,15,01,25.50
2008,05,17,15,02,25.30
2008,05,17,15,03,25.20
2008,05,17,15,04,25.00
2008,05,17,15,05,24.90
2008,05,17,15,06,24.80
2008,05,17,15,07,24.70
2008,05,17,15,08,24.40
2008,05,17,15,09,24.20
2008,05,17,15,10,24.00
2008,05,17,15,11,23.90
2008,05,17,15,12,23.90
2008,05,17,15,13,23.80
2008,05,17,15,14,23.80
2008,05,17,15,15,23.80
2008,05,17,15,16,23.80
2008,05,17,15,17,23.70
2008,05,17,15,18,23.70
2008,05,17,15,19,23.70
2008,05,17,15,20,23.70
2008,05,17,15,21,23.80
2008,05,17,15,22,23.90
2008,05,17,15,23,24.00
2008,05,17,15,24,24.20
2008,05,17,15,25,24.30
2008,05,17,15,26,24.40
2008,05,17,15,27,24.60
2008,05,17,15,28,24.70
2008,05,17,15,29,24.90
2008,05,17,15,30,25.10
2008,05,17,15,31,25.00
2008,05,17,15,32,24.90
2008,05,17,15,33,24.90
2008,05,17,15,34,25.10
2008,05,17,15,35,25.20
2008,05,17,15,36,25.30
2008,05,17,15,37,25.30
2008,05,17,15,38,25.40
2008,05,17,15,39,25.40
2008,05,17,15,40,25.40
2008,05,17,15,41,25.50
2008,05,17,15,42,25.50
2008,05,17,15,43,25.50
2008,05,17,15,44,25.60
2008,05,17,15,45,25.80
2008,05,17,15,46,25.90
2008,05,17,15,47,25.90
2008,05,17,15,48,25.90
2008,05,17,15,49,25.90
2008,05,17,15,50,25.70
2008,05,17,15,51,25.60
2008,05,17,15,52,25.50
2008,05,17,15,53,25.40
2008,05,17,15,54,25.40
2008,05,17,15,55,25.50
2008,05,17,15,56,25.50
2008,05,17,15,57,25.50
2008,05,17,15,58,25.50
2008,05,17,15,59,25.50
2008,05,17,16,00,25.50
2008,05,17,16,01,25.50
2008,05,17,16,02,25.50
2008,05,17,16,03,25.70
2008,05,17,16,04,25.90
2008,05,17,16,05,25.80
2008,05,17,16,06,25.80
2008,05,17,16,07,25.70
2008,05,17,16,08,25.70
2008,05,17,16,09,25.80
2008,05,17,16,10,25.90
2008,05,17,16,11,26.00
2008,05,17,16,12,26.00
2008,05,17,16,13,26.00
2008,05,17,16,14,26.10
2008,05,17,16,15,26.10
2008,05,17,16,16,26.00
2008,05,17,16,17,25.90
2008,05,17,16,18,26.00
2008,05,17,16,19,26.00
2008,05,17,16,20,26.00
2008,05,17,16,21,26.00
2008,05,17,16,22,26.00
2008,05,17,16,23,26.00
2008,05,17,16,24,26.10
2008,05,17,16,25,26.10
2008,05,17,16,26,26.00
2008,05,17,16,27,26.00
2008,05,17,16,28,26.00
2008,05,17,16,29,25.90
2008,05,17,16,30,25.90
2008,05,17,16,31,26.10
2008,05,17,16,32,26.10
2008,05,17,16,33,26.20
2008,05,17,16,34,26.20
2008,05,17,16,35,26.20
2008,05,17,16,36,26.30
2008,05,17,16,37,26.30
2008,05,17,16,38,26.30
2008,05,17,16,39,26.20
2008,05,17,16,40,26.20
2008,05,17,16,41,26.10
2008,05,17,16,42,26.00
2008,05,17,16,43,25.90
2008,05,17,16,44,25.80
2008,05,17,16,45,25.80
2008,05,17,16,46,25.50
2008,05,17,16,47,25.40
2008,05,17,16,48,25.40
2008,05,17,16,49,25.30
2008,05,17,16,50,25.30
2008,05,17,16,51,25.30
2008,05,17,16,52,25.30
2008,05,17,16,53,25.30
2008,05,17,16,54,25.30
2008,05,17,16,55,25.20
2008,05,17,16,56,25.20
2008,05,17,16,57,25.30
2008,05,17,16,58,25.30
2008,05,17,16,59,25.30
2008,05,17,17,00,25.20
2008,05,17,17,01,25.20
2008,05,17,17,02,25.20
2008,05,17,17,03,25.10
2008,05,17,17,04,25.10
2008,05,17,17,05,25.10
2008,05,17,17,06,25.10
2008,05,17,17,07,25.10
2008,05,17,17,08,25.00
2008,05,17,17,09,25.10
2008,05,17,17,10,25.10
2008,05,17,17,11,25.10
2008,05,17,17,12,25.10
2008,05,17,17,13,25.10
2008,05,17,17,14,25.20
2008,05,17,17,15,25.20
2008,05,17,17,16,25.30
2008,05,17,17,17,25.30
2008,05,17,17,18,25.30
2008,05,17,17,19,25.30